Retour au catalogue

BREEZE-M DEB

TANK

ActifHEO
NORAD 39477·DEBRIS·🇷🇺 Russia

Lancé Dec 8, 2013 depuis Baikonur Cosmodrome

Loading…

Prochains Passages (prochaines 24 heures)

TLE

FraisSource: Space-Track

Époque: Sep 13, 2026, 17:32 UTC

1 39477U 13073B   26256.73095108  .00000406  00000-0  24316-3 0  9997
2 39477  50.7533 270.3244 5084715 138.8442 273.5143  5.39634784246812

Suivez BREEZE-M DEB en temps réel avec AllMySat

Download on the App Store